| time (UTC) | temp C | wind direction | speed KPH | gust KPH | rain 1hr cm | rain 24hr cm | rain mn cm | humidity % | barometer mb |
| 20260507030034 | 23 | 48 | 0.0 | 3.2 | 0.00 | 0.00 | 0.00 | 76 | 1014.4 |
| 20260507024536 | 23 | 238 | 0.0 | 6.4 | 0.00 | 0.00 | 0.00 | 76 | 1014.3 |
| 20260507023034 | 23 | 218 | 0.0 | 3.2 | 0.00 | 0.00 | 0.00 | 76 | 1014.0 |
| 20260507021533 | 23 | 125 | 0.0 | 4.8 | 0.00 | 0.00 | 0.00 | 76 | 1013.8 |
| 20260507020032 | 23 | 153 | 0.0 | 9.7 | 0.00 | 0.00 | 0.00 | 76 | 1013.2 |
| 20260507014530 | 23 | 200 | 0.0 | 6.4 | 0.00 | 0.00 | 0.00 | 75 | 1013.1 |
| 20260507013029 | 23 | 206 | 0.0 | 3.2 | 0.00 | 0.00 | 0.00 | 75 | 1013.2 |
| 20260507011529 | 23 | 191 | 0.0 | 4.8 | 0.00 | 0.00 | 0.00 | 75 | 1013.5 |
| 20260507010059 | 23 | 13 | 0.0 | 8.0 | 0.00 | 0.00 | 0.00 | 75 | 1013.4 |
| 20260507004558 | 23 | 214 | 0.0 | 8.0 | 0.00 | 0.00 | 0.00 | 75 | 1013.6 |
| 20260507003100 | 23 | 117 | 0.0 | 6.4 | 0.00 | 0.00 | 0.00 | 75 | 1014.1 |
| 20260507001610 | 23 | 23 | 1.6 | 6.4 | 0.00 | 0.00 | 0.00 | 75 | 1013.7 |
| 20260507000054 | 23 | 319 | 0.0 | 9.7 | 0.00 | 0.00 | 0.00 | 74 | 1013.6 |
| 20260506234601 | 23 | 109 | 0.0 | 9.7 | 0.00 | 0.00 | 0.00 | 74 | 1013.5 |
| 20260506233053 | 23 | 325 | 0.0 | 8.0 | 0.00 | 0.00 | 0.00 | 75 | 1013.3 |
| 20260506231553 | 23 | 243 | 0.0 | 6.4 | 0.00 | 0.00 | 0.00 | 75 | 1013.4 |
| 20260506230048 | 24 | 141 | 0.0 | 6.4 | 0.00 | 0.00 | 0.00 | 74 | 1013.6 |
| 20260506224604 | 24 | 174 | 0.0 | 1.6 | 0.00 | 0.00 | 0.00 | 74 | 1013.8 |
| 20260506223049 | 24 | 141 | 0.0 | 4.8 | 0.00 | 0.00 | 0.00 | 74 | 1014.0 |
| 20260506221545 | 25 | 293 | 0.0 | 6.4 | 0.00 | 0.00 | 0.00 | 72 | 1014.1 |
| 20260506220057 | 25 | 166 | 0.0 | 6.4 | 0.00 | 0.00 | 0.00 | 72 | 1014.2 |
| 20260506214544 | 25 | 171 | 0.0 | 4.8 | 0.00 | 0.00 | 0.00 | 71 | 1014.2 |
| 20260506213043 | 26 | 171 | 0.0 | 8.0 | 0.00 | 0.00 | 0.00 | 70 | 1014.3 |
| 20260506211543 | 26 | 129 | 0.0 | 8.0 | 0.00 | 0.00 | 0.00 | 70 | 1014.4 |
| 20260506210038 | 26 | 113 | 1.6 | 9.7 | 0.00 | 0.00 | 0.00 | 69 | 1014.5 |
| 20260506204538 | 25 | 195 | 0.0 | 4.8 | 0.00 | 0.00 | 0.00 | 71 | 1014.7 |
| 20260506203036 | 25 | 176 | 0.0 | 8.0 | 0.00 | 0.00 | 0.00 | 71 | 1014.9 |
| 20260506201533 | 25 | 288 | 0.0 | 4.8 | 0.00 | 0.00 | 0.00 | 71 | 1015.0 |
| 20260506200035 | 26 | 188 | 0.0 | 8.0 | 0.00 | 0.00 | 0.00 | 70 | 1015.0 |
| 20260506194537 | 26 | 229 | 1.6 | 9.7 | 0.00 | 0.00 | 0.00 | 68 | 1015.2 |
| 20260506193032 | 27 | 186 | 1.6 | 6.4 | 0.00 | 0.00 | 0.00 | 67 | 1015.4 |
| 20260506191529 | 27 | 155 | 1.6 | 4.8 | 0.00 | 0.00 | 0.00 | 67 | 1015.7 |
| 20260506190028 | 26 | 20 | 0.0 | 11.3 | 0.00 | 0.00 | 0.00 | 69 | 1016.1 |
| 20260506184530 | 26 | 163 | 0.0 | 8.0 | 0.00 | 0.00 | 0.00 | 68 | 1016.3 |
| 20260506183027 | 27 | 220 | 0.0 | 8.0 | 0.00 | 0.00 | 0.00 | 66 | 1016.4 |
| 20260506181616 | 27 | 281 | 1.6 | 9.7 | 0.00 | 0.00 | 0.00 | 64 | 1016.4 |
| 20260506180054 | 27 | 309 | 0.0 | 4.8 | 0.00 | 0.00 | 0.00 | 65 | 1016.6 |
| 20260506174552 | 28 | 248 | 0.0 | 6.4 | 0.00 | 0.00 | 0.00 | 64 | 1016.5 |
| 20260506173117 | 27 | 110 | 0.0 | 6.4 | 0.00 | 0.00 | 0.00 | 66 | 1016.7 |
| 20260506171553 | 26 | 56 | 0.0 | 4.8 | 0.00 | 0.00 | 0.00 | 69 | 1016.7 |
| 20260506170050 | 26 | 9 | 0.0 | 4.8 | 0.00 | 0.00 | 0.00 | 69 | 1017.0 |
| 20260506164542 | 26 | 26 | 0.0 | 3.2 | 0.00 | 0.00 | 0.00 | 69 | 1017.0 |
| 20260506163042 | 26 | 47 | 0.0 | 6.4 | 0.00 | 0.00 | 0.00 | 69 | 1017.0 |
| 20260506161541 | 26 | 225 | 1.6 | 8.0 | 0.00 | 0.00 | 0.00 | 68 | 1016.9 |
| 20260506160041 | 26 | 66 | 0.0 | 6.4 | 0.00 | 0.00 | 0.00 | 69 | 1017.0 |
| 20260506154534 | 26 | 209 | 0.0 | 4.8 | 0.00 | 0.00 | 0.00 | 70 | 1017.0 |
| 20260506153031 | 25 | 151 | 0.0 | 3.2 | 0.00 | 0.00 | 0.00 | 71 | 1016.9 |
| 20260506151531 | 25 | 221 | 0.0 | 4.8 | 0.00 | 0.00 | 0.00 | 72 | 1016.7 |
| 20260506150030 | 25 | 261 | 0.0 | 8.0 | 0.00 | 0.00 | 0.00 | 72 | 1016.6 |
| 20260506144523 | 25 | 213 | 0.0 | 3.2 | 0.00 | 0.00 | 0.00 | 72 | 1016.6 |
| 20260506143022 | 24 | 132 | 0.0 | 11.3 | 0.00 | 0.00 | 0.00 | 73 | 1016.5 |
| 20260506141521 | 24 | 258 | 0.0 | 4.8 | 0.00 | 0.00 | 0.00 | 72 | 1016.4 |
| 20260506140021 | 25 | 207 | 0.0 | 4.8 | 0.00 | 0.00 | 0.00 | 72 | 1016.2 |
| 20260506134518 | 24 | 224 | 3.2 | 8.0 | 0.00 | 0.00 | 0.00 | 73 | 1016.1 |
| 20260506133012 | 24 | 203 | 1.6 | 8.0 | 0.00 | 0.00 | 0.00 | 74 | 1016.0 |
| 20260506131520 | 23 | 257 | 0.0 | 6.4 | 0.00 | 0.00 | 0.00 | 75 | 1015.9 |
| 20260506130006 | 23 | 190 | 1.6 | 9.7 | 0.00 | 0.00 | 0.00 | 77 | 1015.6 |
| 20260506124533 | 22 | 342 | 0.0 | 6.4 | 0.00 | 0.00 | 0.00 | 80 | 1015.4 |
| 20260506123031 | 22 | 103 | 0.0 | 3.2 | 0.00 | 0.00 | 0.00 | 81 | 1015.4 |
| 20260506121525 | 21 | 56 | 0.0 | 1.6 | 0.00 | 0.00 | 0.00 | 81 | 1015.0 |
| 20260506120023 | 21 | 180 | 0.0 | 0.0 | 0.00 | 0.00 | 0.00 | 81 | 1014.8 |
| 20260506114522 | 21 | 180 | 0.0 | 0.0 | 0.00 | 0.00 | 0.00 | 81 | 1014.4 |
| 20260506113022 | 20 | 180 | 0.0 | 4.8 | 0.00 | 0.00 | 0.00 | 81 | 1014.3 |
| 20260506111514 | 20 | 68 | 0.0 | 1.6 | 0.00 | 0.00 | 0.00 | 81 | 1014.0 |
| 20260506110013 | 20 | 58 | 0.0 | 0.0 | 0.00 | 0.00 | 0.00 | 81 | 1013.8 |
| 20260506104510 | 19 | 58 | 0.0 | 0.0 | 0.00 | 0.00 | 0.00 | 81 | 1013.5 |
| 20260506103009 | 19 | 129 | 0.0 | 0.0 | 0.00 | 0.00 | 0.00 | 81 | 1013.3 |
| 20260506101506 | 18 | 128 | 0.0 | 1.6 | 0.00 | 0.00 | 0.00 | 81 | 1013.2 |
| 20260506100003 | 18 | 129 | 0.0 | 1.6 | 0.00 | 0.00 | 0.00 | 81 | 1013.0 |
| 20260506094502 | 17 | 128 | 0.0 | 0.0 | 0.00 | 0.00 | 0.00 | 81 | 1013.0 |
| 20260506093100 | 17 | 128 | 0.0 | 0.0 | 0.00 | 0.00 | 0.00 | 81 | 1013.1 |
| 20260506091557 | 17 | 128 | 0.0 | 0.0 | 0.00 | 0.00 | 0.00 | 81 | 1013.1 |
| 20260506090056 | 17 | 129 | 0.0 | 0.0 | 0.00 | 0.00 | 0.00 | 81 | 1013.3 |
| 20260506084553 | 17 | 129 | 0.0 | 0.0 | 0.00 | 0.00 | 0.00 | 81 | 1013.5 |
| 20260506083052 | 17 | 128 | 0.0 | 0.0 | 0.00 | 0.00 | 0.00 | 80 | 1013.5 |
| 20260506081554 | 17 | 129 | 0.0 | 0.0 | 0.00 | 0.00 | 0.00 | 81 | 1013.6 |
| 20260506073044 | 17 | 129 | 0.0 | 0.0 | 0.00 | 0.00 | 0.00 | 80 | 1013.8 |
| 20260506071545 | 17 | 129 | 0.0 | 0.0 | 0.00 | 0.00 | 0.00 | 80 | 1014.0 |
| 20260506061535 | 17 | 129 | 0.0 | 0.0 | 0.00 | 0.00 | 0.00 | 80 | 1014.3 |
| 20260506044513 | 17 | 101 | 0.0 | 0.0 | 0.00 | 0.00 | 0.00 | 77 | 1015.1 |
| 20260506043013 | 18 | 101 | 0.0 | 0.0 | 0.00 | 0.00 | 0.00 | 77 | 1015.1 |
| 20260506040014 | 18 | 101 | 0.0 | 0.0 | 0.00 | 0.00 | 0.00 | 75 | 1015.4 |
| 20260506034513 | 18 | 101 | 0.0 | 0.0 | 0.00 | 0.00 | 0.00 | 73 | 1015.3 |
| 20260506033016 | 18 | 101 | 0.0 | 0.0 | 0.00 | 0.00 | 0.00 | 73 | 1015.5 |